Location: Knowlton
(51.2333°N, 1.2667°E)
Time: 04:07:20
(UTC+00:00)

CARTOSAT-1 - Pass Details

Date: 18 April 2021
Orbit: 615 x 619 km, 97.8° (Epoch: 06 May)

Event Time Altitude Azimuth Distance (km) Brightness Sun altitude
Exits shadow 21:04:23 35° 154° (SSE) 1,008 4.1 -17.6°
Maximum altitude 21:06:10 77° 75° (ENE) 641 3.5 -17.8°
Drops below altitude 10° 21:10:30 10° 349° (NNW) 1,995 7.0 -18.3°
Sets 21:12:42 0° 348° (NNW) 2,905 8.1 -18.5°
